| time (UTC) | temp F | wind direction | speed MPH | gust MPH | rain 1hr in | rain 24hr in | rain mn in | humidity % | barometer mb |
| 20260507070018 | 49 | 268 | 1.0 | 3.0 | 0.00 | 0.09 | 0.00 | 89 | 1015.9 |
| 20260507064517 | 48 | 323 | 0.0 | 1.0 | 0.00 | 0.10 | 0.00 | 91 | 1015.8 |
| 20260507063026 | 47 | 274 | 0.0 | 2.0 | 0.00 | 0.11 | 0.00 | 92 | 1015.7 |
| 20260507061506 | 47 | 320 | 0.0 | 3.0 | 0.00 | 0.12 | 0.00 | 94 | 1015.5 |
| 20260507060009 | 47 | 270 | 0.0 | 2.0 | 0.00 | 0.14 | 0.00 | 95 | 1015.5 |
| 20260507054514 | 46 | 306 | 0.0 | 2.0 | 0.00 | 0.15 | 0.00 | 95 | 1015.3 |
| 20260507053019 | 46 | 316 | 0.0 | 2.0 | 0.00 | 0.16 | 0.00 | 95 | 1015.2 |
| 20260507051524 | 46 | 338 | 0.0 | 1.0 | 0.00 | 0.18 | 0.00 | 95 | 1015.1 |
| 20260507050022 | 46 | 340 | 0.0 | 2.0 | 0.00 | 0.20 | 0.00 | 95 | 1014.9 |
| 20260507044522 | 46 | 323 | 0.0 | 1.0 | 0.00 | 0.22 | 0.00 | 95 | 1014.7 |
| 20260507043012 | 46 | 311 | 0.0 | 2.0 | 0.00 | 0.24 | 0.00 | 95 | 1014.6 |
| 20260507041518 | 46 | 355 | 0.0 | 1.0 | 0.00 | 0.25 | 0.00 | 95 | 1014.5 |
| 20260507040021 | 45 | 67 | 0.0 | 0.0 | 0.00 | 0.26 | 0.00 | 95 | 1014.4 |
| 20260507034526 | 45 | 67 | 0.0 | 0.0 | 0.00 | 0.26 | 0.00 | 95 | 1014.5 |
| 20260507033017 | 45 | 67 | 0.0 | 0.0 | 0.00 | 0.27 | 0.00 | 94 | 1014.3 |
| 20260507031515 | 45 | 67 | 0.0 | 0.0 | 0.00 | 0.28 | 0.00 | 94 | 1014.3 |
| 20260507030020 | 45 | 67 | 0.0 | 0.0 | 0.00 | 0.29 | 0.00 | 94 | 1014.3 |
| 20260507024525 | 45 | 67 | 0.0 | 0.0 | 0.00 | 0.29 | 0.00 | 94 | 1014.2 |
| 20260507023029 | 45 | 67 | 0.0 | 0.0 | 0.00 | 0.29 | 0.00 | 94 | 1014.2 |
| 20260507021512 | 45 | 67 | 0.0 | 2.0 | 0.00 | 0.30 | 0.00 | 93 | 1014.1 |
| 20260507020018 | 46 | 292 | 0.0 | 2.0 | 0.00 | 0.30 | 0.00 | 94 | 1013.9 |
| 20260507014531 | 46 | 312 | 0.0 | 0.0 | 0.00 | 0.31 | 0.00 | 95 | 1013.8 |
| 20260507013026 | 46 | 312 | 0.0 | 0.0 | 0.00 | 0.33 | 0.00 | 95 | 1013.8 |
| 20260507011510 | 45 | 313 | 0.0 | 0.0 | 0.00 | 0.35 | 0.00 | 95 | 1013.8 |
| 20260507010010 | 45 | 313 | 0.0 | 0.0 | 0.00 | 0.36 | 0.00 | 94 | 1013.8 |
| 20260507004521 | 45 | 312 | 0.0 | 0.0 | 0.00 | 0.37 | 0.00 | 94 | 1013.7 |
| 20260507003003 | 45 | 313 | 0.0 | 0.0 | 0.00 | 0.38 | 0.00 | 94 | 1013.7 |
| 20260507001505 | 45 | 313 | 0.0 | 0.0 | 0.00 | 0.40 | 0.00 | 94 | 1013.5 |
| 20260507000010 | 45 | 313 | 0.0 | 0.0 | 0.00 | 0.40 | 0.00 | 94 | 1013.5 |
| 20260506234516 | 45 | 313 | 0.0 | 0.0 | 0.00 | 0.41 | 0.00 | 94 | 1013.4 |
| 20260506233020 | 45 | 312 | 0.0 | 0.0 | 0.00 | 0.42 | 0.00 | 93 | 1013.4 |
| 20260506231504 | 44 | 312 | 0.0 | 0.0 | 0.00 | 0.44 | 0.00 | 93 | 1013.4 |
| 20260506230003 | 44 | 313 | 0.0 | 0.0 | 0.00 | 0.44 | 0.00 | 93 | 1013.4 |
| 20260506224510 | 44 | 312 | 0.0 | 1.0 | 0.00 | 0.45 | 0.00 | 92 | 1013.3 |
| 20260506223016 | 44 | 313 | 0.0 | 0.0 | 0.00 | 0.46 | 0.00 | 91 | 1012.9 |
| 20260506221521 | 45 | 313 | 0.0 | 0.0 | 0.00 | 0.48 | 0.00 | 89 | 1012.7 |
| 20260506220026 | 45 | 313 | 0.0 | 0.0 | 0.00 | 0.48 | 0.00 | 89 | 1012.7 |
| 20260506214507 | 46 | 317 | 0.0 | 2.0 | 0.00 | 0.50 | 0.48 | 88 | 1012.7 |
| 20260506213011 | 46 | 288 | 0.0 | 2.0 | 0.00 | 0.51 | 0.48 | 87 | 1012.7 |
| 20260506211518 | 47 | 297 | 0.0 | 1.0 | 0.00 | 0.54 | 0.48 | 86 | 1012.5 |
| 20260506210022 | 47 | 295 | 0.0 | 2.0 | 0.00 | 0.55 | 0.48 | 85 | 1012.5 |
| 20260506204526 | 48 | 347 | 0.0 | 3.0 | 0.00 | 0.57 | 0.48 | 84 | 1012.3 |
| 20260506203008 | 48 | 338 | 0.0 | 3.0 | 0.00 | 0.59 | 0.48 | 84 | 1012.2 |
| 20260506201516 | 49 | 345 | 0.0 | 3.0 | 0.00 | 0.59 | 0.48 | 83 | 1012.1 |
| 20260506200019 | 49 | 298 | 0.0 | 3.0 | 0.00 | 0.60 | 0.48 | 83 | 1011.9 |
| 20260506194524 | 50 | 325 | 0.0 | 3.0 | 0.00 | 0.61 | 0.48 | 84 | 1011.8 |
| 20260506193025 | 51 | 14 | 0.0 | 2.0 | 0.00 | 0.62 | 0.48 | 88 | 1011.8 |
| 20260506191525 | 51 | 314 | 0.0 | 1.0 | 0.00 | 0.62 | 0.48 | 88 | 1011.5 |
| 20260506190014 | 51 | 308 | 0.0 | 3.0 | 0.00 | 0.63 | 0.48 | 87 | 1011.4 |
| 20260506184521 | 52 | 316 | 0.0 | 1.0 | 0.00 | 0.64 | 0.48 | 87 | 1011.2 |
| 20260506183022 | 52 | 316 | 0.0 | 1.0 | 0.00 | 0.65 | 0.48 | 86 | 1011.2 |
| 20260506181528 | 52 | 316 | 0.0 | 1.0 | 0.00 | 0.66 | 0.48 | 86 | 1010.9 |
| 20260506180038 | 52 | 323 | 0.0 | 3.0 | 0.00 | 0.66 | 0.48 | 85 | 1010.8 |
| 20260506174513 | 52 | 267 | 0.0 | 2.0 | 0.00 | 0.67 | 0.48 | 84 | 1010.5 |
| 20260506173020 | 52 | 286 | 0.0 | 3.0 | 0.00 | 0.67 | 0.48 | 83 | 1010.4 |
| 20260506171527 | 53 | 350 | 0.0 | 5.0 | 0.00 | 0.67 | 0.48 | 81 | 1010.2 |
| 20260506170027 | 53 | 286 | 1.0 | 4.0 | 0.00 | 0.67 | 0.48 | 82 | 1010.2 |
| 20260506164529 | 52 | 252 | 0.0 | 4.0 | 0.00 | 0.67 | 0.48 | 85 | 1010.1 |
| 20260506163052 | 52 | 317 | 0.0 | 2.0 | 0.00 | 0.67 | 0.48 | 86 | 1010.1 |
| 20260506161520 | 52 | 325 | 0.0 | 1.0 | 0.00 | 0.67 | 0.48 | 90 | 1010.1 |
| 20260506160010 | 52 | 347 | 0.0 | 1.0 | 0.00 | 0.67 | 0.48 | 89 | 1010.1 |
| 20260506154509 | 52 | 347 | 0.0 | 0.0 | 0.00 | 0.67 | 0.48 | 89 | 1010.1 |
| 20260506153010 | 53 | 347 | 0.0 | 1.0 | 0.00 | 0.67 | 0.48 | 87 | 1010.0 |
| 20260506151518 | 53 | 347 | 0.0 | 1.0 | 0.00 | 0.67 | 0.48 | 86 | 1010.1 |
| 20260506150026 | 53 | 347 | 0.0 | 1.0 | 0.00 | 0.67 | 0.48 | 87 | 1010.1 |
| 20260506144503 | 53 | 271 | 0.0 | 2.0 | 0.00 | 0.67 | 0.48 | 86 | 1010.0 |
| 20260506143008 | 53 | 303 | 0.0 | 2.0 | 0.00 | 0.67 | 0.48 | 86 | 1010.0 |
| 20260506141514 | 53 | 268 | 0.0 | 3.0 | 0.00 | 0.67 | 0.48 | 86 | 1010.0 |
| 20260506140018 | 52 | 266 | 0.0 | 3.0 | 0.00 | 0.67 | 0.48 | 89 | 1010.1 |
| 20260506134522 | 52 | 261 | 1.0 | 3.0 | 0.00 | 0.67 | 0.48 | 87 | 1010.0 |
| 20260506133028 | 52 | 316 | 0.0 | 3.0 | 0.00 | 0.67 | 0.48 | 87 | 1010.1 |
| 20260506131514 | 53 | 330 | 0.0 | 3.0 | 0.00 | 0.67 | 0.48 | 88 | 1010.0 |
| 20260506130014 | 53 | 5 | 0.0 | 4.0 | 0.00 | 0.67 | 0.48 | 87 | 1010.0 |
| 20260506124520 | 52 | 315 | 1.0 | 7.0 | 0.00 | 0.67 | 0.48 | 88 | 1009.9 |
| 20260506123026 | 52 | 292 | 1.0 | 6.0 | 0.00 | 0.67 | 0.48 | 88 | 1009.9 |
| 20260506121528 | 52 | 243 | 1.0 | 8.0 | 0.00 | 0.67 | 0.48 | 89 | 1009.8 |
| 20260506120010 | 52 | 323 | 2.0 | 6.0 | 0.00 | 0.67 | 0.48 | 92 | 1009.8 |
| 20260506114515 | 51 | 312 | 1.0 | 8.0 | 0.00 | 0.67 | 0.48 | 94 | 1009.7 |
| 20260506113019 | 51 | 36 | 1.0 | 4.0 | 0.00 | 0.67 | 0.48 | 96 | 1009.7 |
| 20260506111525 | 50 | 263 | 2.0 | 5.0 | 0.00 | 0.67 | 0.48 | 97 | 1009.7 |
| 20260506110030 | 50 | 348 | 1.0 | 4.0 | 0.00 | 0.67 | 0.48 | 97 | 1009.7 |
| 20260506104528 | 49 | 304 | 1.0 | 4.0 | 0.00 | 0.67 | 0.48 | 97 | 1009.9 |
| 20260506103018 | 48 | 317 | 1.0 | 4.0 | 0.00 | 0.67 | 0.48 | 97 | 1010.0 |
| 20260506101503 | 48 | 350 | 1.0 | 4.0 | 0.01 | 0.67 | 0.48 | 97 | 1009.8 |
| 20260506100004 | 48 | 324 | 0.0 | 5.0 | 0.02 | 0.67 | 0.48 | 97 | 1009.6 |
| 20260506094508 | 48 | 42 | 1.0 | 7.0 | 0.03 | 0.67 | 0.48 | 97 | 1009.5 |
| 20260506093004 | 48 | 309 | 1.0 | 5.0 | 0.03 | 0.66 | 0.48 | 97 | 1009.4 |
| 20260506091504 | 47 | 317 | 1.0 | 4.0 | 0.03 | 0.66 | 0.47 | 97 | 1009.3 |
| 20260506090004 | 47 | 33 | 0.0 | 4.0 | 0.03 | 0.65 | 0.46 | 97 | 1009.2 |
| 20260506084504 | 47 | 118 | 1.0 | 5.0 | 0.02 | 0.64 | 0.45 | 97 | 1009.1 |
| 20260506083009 | 47 | 340 | 0.0 | 3.0 | 0.02 | 0.62 | 0.44 | 97 | 1009.0 |
| 20260506081511 | 47 | 329 | 0.0 | 4.0 | 0.03 | 0.62 | 0.44 | 97 | 1008.9 |
| 20260506073006 | 46 | 15 | 1.0 | 5.0 | 0.03 | 0.60 | 0.41 | 97 | 1008.4 |
| 20260506071510 | 46 | 333 | 1.0 | 5.0 | 0.03 | 0.59 | 0.40 | 97 | 1008.3 |